Regional Weather Roundup
Issued by NWS Charleston, SC

Current Version | Previous Version | Graphics & Text | Print | Product List | Glossary On
Versions: 1 2 3 4 5 6 7 8 9 10 11 12 13 14 15 16 17 18 19 20 21 22 23 24 25 26 27 28 29 30 31 32 33 34 35 36 37 38 39 40 41 42 43 44 45 46 47 48 49 50
279
ASUS42 KCHS 240127
RWRCHS

REGIONAL WEATHER ROUNDUP
NATIONAL WEATHER SERVICE CHARLESTON SC
900 PM EDT FRI JUN 23 2017

NOTE: "FAIR" INDICATES FEW OR NO CLOUDS BELOW 12,000 FEET WITH NO
SIGNIFICANT WEATHER AND/OR OBSTRUCTIONS TO VISIBILITY.

NOT ALL STATIONS ARE QUALITY CONTROLLED. USE DATA WITH CAUTION...
ESPECIALLY DEWPOINT OBSERVATIONS.

SCZ027-030-031-034>040-042>050-240200-
...SOUTHEAST SOUTH CAROLINA...

CITY           SKY/WX    TMP DP  RH WIND       PRES   REMARKS
N CHARLESTON   MOCLDY    79  72  79 S13       29.97R
WATERFRONT PRK   N/A     81  76  85 S14       29.94S
JOHNS ISLAND   CLOUDY    81  75  83 S14       29.99R
PINOPOLIS        N/A     82  75  78 S5        29.89R
MONCKS CORNER  FAIR      79  73  83 S8        29.97R
SUMMERVILLE    FAIR      79  73  83 S6        29.98R
BEAUFORT MCAS  PTCLDY    78  76  93 S10G16    29.98R
BEAUFORT ARPT  FAIR      81  73  78 S13       29.98R
HILTON HEAD IS CLEAR     82  75  78 S10G18    29.99S
WALTERBORO     LGT RAIN  79  75  89 S8        29.98R
ALLENDALE      FAIR      82  75  78 S8        29.95R

...SOUTHERN MIDLANDS AND PEE DEE...

CITY           SKY/WX    TMP DP  RH WIND       PRES   REMARKS
GEORGETOWN     FAIR      77  75  94 S7        29.99R
KINGSTREE      FAIR      79  73  83 S7        29.94R
ORANGEBURG     PTCLDY    81  74  79 S12       29.95R
BARNWELL       CLOUDY    84  77  79 S9G15     29.95R HX  94
AIKEN          FAIR      82  72  69 S8        29.97R
MANNING        FAIR      81  77  89 S14G25    29.95R
COLUMBIA       PTCLDY    87  74  64 S10       29.90R HX  95
SUMTER         CLEAR     81  75  81 S13       29.90R
FLORENCE       PTCLDY    83  78  85 S10       29.92R HX  93
MYRTLE BEACH   CLEAR     81  75  83 S14       29.96S
N MYRTLE BEACH PTCLDY    80  75  84 SW22      29.96R

$$

GAZ063-065-086>088-099>101-113>116-118-119-134>141-150-240200-
...SOUTHEAST GEORGIA...

CITY           SKY/WX    TMP DP  RH WIND       PRES   REMARKS
SAVANNAH ARPT  CLOUDY    80  73  79 N3        29.98R
HUNTER AAF     CLEAR     82  74  76 S8        29.96R
FORT STEWART   PTCLDY    82  73  74 S5        29.96R
STATESBORO     CLOUDY    81  79  95 S7        29.97R HX  90
SYLVANIA       CLOUDY    82  79  91 S5        29.98R HX  91
CLAXTON        FAIR      78  76  94 CALM      29.97R

...CSRA...CENTRAL AND FAR SOUTHEAST GEORGIA...

CITY           SKY/WX    TMP DP  RH WIND       PRES   REMARKS
THOMSON        CLEAR     81  72  74 W3        29.98R
AUGUSTA-BUSH   PTCLDY    87  76  69 S10       29.91R HX  97
AUGUSTA-DANIEL CLEAR     89  70  53 S8        29.93R HX  94
SWAINSBORO     FAIR      82  75  78 SW5       29.98R
VIDALIA        PTCLDY    82  77  83 CALM      29.98R HX  91
EASTMAN        FAIR      84  69  60 SW6       30.00R
HAZLEHURST     FAIR      83  78  85 SW6       29.97R HX  94
ALMA           CLEAR     81  76  84 CALM      29.97R
WAYCROSS       PTCLDY    86  83  92 CALM      29.99R HX 105
JESUP          FAIR      82  72  69 SW5       29.99R
BAXLEY         FAIR      81  81 100 CALM      29.98R HX  91
BRUNSWICK      CLEAR     82  75  78 S12G18    30.00R
SAINT SIMONS   CLEAR     83  74  74 S13G22    29.99R

$$

SCZ027-028-034-036>038-045-046-048>050-GAZ119-141-240200-
...LAKE AND SUPPLEMENTAL COASTAL OBSERVATIONS...

STATION/POSITION TIME  TEMP    WIND        PRES    WAVE   SWELL
                       AIR SEA DIR/SP/G            HT/PER HT/PER/DIR
                 (UTC) (F)     (DEG/KT/KT) (MB)    (FT/S) (FT/S/D)
WINYAH BAY       0045   81     210/ 14     1014.0S
LAKE MURRAY      0020   87     200/  9/ 13 1011.2
ACE BASIN NERRS  0030   82     180/  1     1015.0S
FORT PULASKI     0100   82 84  200/ 12/ 18 1015.5
SAPELO ISLAND    0100   83     180/ 18     1015.0

$$

ANZ835-935-AMZ111-154-330-350-352-354-370-450-454-472-240200-
...C-MAN AND BUOY OBSERVATIONS...

STATION/POSITION TIME  TEMP    WIND        PRES    WAVE   SWELL
                       AIR SEA DIR/SP/G            HT/PER HT/PER/DIR
                 (UTC) (F)     (DEG/KT/KT) (MB)    (FT/S) (FT/S/D)
BUOY 41004       0110   81 81  200/ 17/ 21 1015.3
BUOY 41008       0050   82 82  170/ 17/ 21 1014.6R   4/ 4   2/100/10
FOLLY BEACH CMAN 0100   81     200/ 20/ 22 1015.9R
CAPERS NEARSHORE 0108   86 83  210/ 19/ 25 1014.5R
FRIPP NEARSHORE  0108   82 83  190/ 17/ 25 1014.6R


STATION/POSITION TIME  TEMP    WIND        PRES    WAVE   SWELL
                       AIR SEA DIR/SP/G            HT/PER HT/PER/DIR
                 (UTC) (F)     (DEG/KT/KT) (MB)    (FT/S) (FT/S/D)
5E ST. MARYS GA  0100      79                N/A     4/ 9
FRYING PAN BUOY  0110   81 81  210/ 17/ 21 1015.0
BUOY 41025       0050   81 80  220/ 21/ 25 1013.5S   6/ 5   2/120/ 9
CAPE LOOKOUT NC  0100   80     210/ 14/ 20 1013.9R
BUOY 41002       0050   81 81  190/ 14/ 16 1018.3F   4/ 9   3/110/ 9
BUOY 41010       0110   82 83  150/ 12/ 14 1017.6
ST AUGUSTINE FL  0100   79 79  160/ 14/ 15 1016.1R


$$




USA.gov is the U.S. government's official web portal to all federal, state and local government web resources and services.